This is the latest recevied weather packets stored in our database for station/object K7AEL. If no packets are shown the sender has not sent any weather packets the latest 10 day(s).
| Time | Temp. | Humidity | Pressure | Rain* | Wind** | Luminosity | Snow |
|---|---|---|---|---|---|---|---|
| 1777932837 | 26.67° C | 22% | 1014.2 hPa | 0 mm | - | 101 W/m² | - |
| 1777932534 | 26.67° C | 22% | 1014.2 hPa | 0 mm | - | 117 W/m² | - |
| 1777932231 | 26.67° C | 22% | 1014.2 hPa | 0 mm | - | 144 W/m² | - |
| 1777931928 | 26.67° C | 22% | 1014.2 hPa | 0 mm | - | 109 W/m² | - |
| 1777931624 | 26.67° C | 21% | 1014.4 hPa | 0 mm | - | 110 W/m² | - |
| 1777931321 | 27.22° C | 21% | 1014.3 hPa | 0 mm | - | 147 W/m² | - |
| 1777931018 | 27.22° C | 21% | 1014.2 hPa | 0 mm | - | 216 W/m² | - |
| 1777930714 | 27.78° C | 20% | 1014.2 hPa | 0 mm | - | 244 W/m² | - |
| 1777930410 | 27.78° C | 20% | 1014.2 hPa | 0 mm | - | 350 W/m² | - |
| 1777930108 | 27.78° C | 19% | 1014 hPa | 0 mm | - | 321 W/m² | - |
| 1777929803 | 28.33° C | 19% | 1014 hPa | 0 mm | - | 287 W/m² | - |
| 1777929502 | 27.78° C | 20% | 1014.1 hPa | 0 mm | - | 303 W/m² | - |
| 1777929197 | 27.78° C | 20% | 1014.2 hPa | 0 mm | - | 314 W/m² | - |
| 1777928895 | 27.22° C | 20% | 1014 hPa | 0 mm | - | 263 W/m² | - |
| 1777928592 | 27.22° C | 20% | 1013.8 hPa | 0 mm | - | 219 W/m² | - |
| 1777928289 | 27.22° C | 21% | 1014 hPa | 0 mm | - | 162 W/m² | - |
| 1777927987 | 27.78° C | 20% | 1014 hPa | 0 mm | - | 190 W/m² | - |
| 1777927685 | 27.78° C | 20% | 1014.1 hPa | 0 mm | - | 217 W/m² | - |
| 1777927383 | 27.22° C | 20% | 1014 hPa | 0 mm | - | 205 W/m² | - |
| 1777927082 | 27.78° C | 23% | 1014 hPa | 0 mm | - | 217 W/m² | - |
| 1777926778 | 27.78° C | 23% | 1014 hPa | 0 mm | - | 189 W/m² | - |
| 1777926473 | 27.78° C | 23% | 1013.9 hPa | 0 mm | - | 240 W/m² | - |
| 1777926170 | 27.78° C | 23% | 1013.7 hPa | 0 mm | - | 269 W/m² | - |
| 1777925867 | 27.78° C | 23% | 1013.9 hPa | 0 mm | - | 295 W/m² | - |
| 1777925564 | 27.78° C | 23% | 1013.9 hPa | 0 mm | - | 283 W/m² | - |
* Rain latest hour (hover to see other rain measurements)
** Current wind speed in m/s (hover to see current wind gust speed)